Weather History for KPRO - January, 2013

Change the Weather History Date:

Sunday, January 6, 2013

  Actual Average Record
Temperature  
Mean Temperature 18 °F -  
Max Temperature 26 °F 26 °F 50 °F (1961)
Min Temperature 11 °F 8 °F -23 °F (1971)
Degree Days  
Heating Degree Days 46    
Moisture  
Dew Point 14 °F    
Average Humidity 84    
Maximum Humidity 92    
Minimum Humidity 75    
Precipitation  
Precipitation 0.00 in - - ()
Sea Level Pressure  
Sea Level Pressure 30.22 in    
Wind  
Wind Speed 12 mph (West)    
Max Wind Speed 18 mph    
Max Gust Speed 26 mph    
Visibility 10 miles    
Events      
Averages and records for this station are not official NWS values.
T = Trace of Precipitation, MM = Missing Value Source: NWS Daily Summary

Daily Weather History Graph

Daily Weather History Graph

Search for Another Location

Airport or City:

Trip Planner

Search our weather history database for the weather conditions in past years. The results will help you decide how hot, cold, wet, or windy it might be!

Date:

Astronomy

Jan. 06, 2013 Rise Set
Actual Time 7:44 AM CST 5:01 PM CST
Civil Twilight 7:12 AM CST 5:32 PM CST
Nautical Twilight 6:38 AM CST 6:07 PM CST
Astronomical Twilight 6:04 AM CST 6:41 PM CST
Moon 1:57 AM CST (1/6) 12:30 PM CST (1/6)
Length of Visible Light 10h 19m
Length of Day
9h 17m
Waning Crescent, 33% of the Moon is Illuminated
Jan 6
Waning Crescent
Jan 11
New
Jan 18
First Quarter
Jan 26
Full
Feb 3
Last Quarter

Hourly Weather History & Observations

Time (CST) Temp. Windchill Dew Point Humidity Pressure Visibility Wind Dir Wind Speed Gust Speed Precip Events Conditions
12:15 AM 20.7 °F 7.1 °F 16.3 °F 83% 30.11 in 10.0 mi NW 15.0 mph - N/A   Overcast
12:35 AM 20.5 °F 5.5 °F 16.2 °F 83% 30.12 in 10.0 mi NW 18.4 mph 26.5 mph N/A   Overcast
12:55 AM 19.6 °F 5.2 °F 15.4 °F 84% 30.11 in 10.0 mi NW 16.1 mph 23.0 mph N/A   Overcast
1:15 AM 19.0 °F 4.0 °F 14.9 °F 84% 30.12 in 7.0 mi NW 17.3 mph 24.2 mph N/A   Overcast
1:35 AM 18.1 °F 2.4 °F 14.0 °F 84% 30.13 in 7.0 mi NW 18.4 mph 24.2 mph N/A   Overcast
1:55 AM 17.6 °F 3.2 °F 14.0 °F 86% 30.14 in 10.0 mi NW 15.0 mph 21.9 mph N/A   Overcast
2:15 AM 17.2 °F 2.7 °F 13.3 °F 84% 30.15 in 10.0 mi NW 15.0 mph - N/A   Scattered Clouds
2:35 AM 16.3 °F 2.7 °F 12.6 °F 85% 30.16 in 10.0 mi NW 12.7 mph - N/A   Clear
2:55 AM 15.4 °F 1.6 °F 11.8 °F 86% 30.16 in 10.0 mi WNW 12.7 mph - N/A   Clear
3:15 AM 14.9 °F 1.6 °F 11.7 °F 87% 30.17 in 10.0 mi WNW 11.5 mph - N/A   Clear
3:35 AM 14.9 °F 2.3 °F 11.7 °F 87% 30.17 in 10.0 mi WNW 10.4 mph - N/A   Clear
3:55 AM 14.2 °F 0.7 °F 10.9 °F 87% 30.17 in 10.0 mi WNW 11.5 mph - N/A   Clear
4:15 AM 14.4 °F 0.2 °F 10.8 °F 86% 30.18 in 10.0 mi WNW 12.7 mph - N/A   Clear
4:35 AM 14.5 °F 1.1 °F 10.6 °F 84% 30.18 in 10.0 mi WNW 11.5 mph 18.4 mph N/A   Clear
4:55 AM 14.0 °F -0.2 °F 10.0 °F 84% 30.18 in 10.0 mi WNW 12.7 mph - N/A   Clear
5:15 AM 13.8 °F 0.2 °F 9.7 °F 84% 30.18 in 10.0 mi WNW 11.5 mph - N/A   Clear
5:35 AM 13.6 °F -1.3 °F 9.1 °F 82% 30.20 in 10.0 mi WNW 13.8 mph - N/A   Clear
5:55 AM 13.6 °F -1.3 °F 9.0 °F 82% 30.20 in 10.0 mi WNW 13.8 mph - N/A   Clear
6:15 AM 13.1 °F -0.7 °F 9.3 °F 85% 30.21 in 10.0 mi WNW 11.5 mph - N/A   Clear
6:35 AM 12.9 °F -1.6 °F 9.0 °F 84% 30.22 in 10.0 mi WNW 12.7 mph - N/A   Clear
6:55 AM 12.4 °F -2.3 °F 8.6 °F 85% 30.23 in 10.0 mi WNW 12.7 mph - N/A   Clear
7:15 AM 11.8 °F -1.5 °F 8.4 °F 86% 30.23 in 10.0 mi WNW 10.4 mph - N/A   Clear
7:55 AM 11.1 °F 0.4 °F 7.9 °F 87% 30.24 in 10.0 mi WNW 6.9 mph - N/A   Clear
8:15 AM 11.8 °F -0.7 °F 8.6 °F 87% 30.25 in 10.0 mi WNW 9.2 mph - N/A   Mostly Cloudy
8:35 AM 11.7 °F -0.9 °F 8.4 °F 87% 30.26 in 10.0 mi WNW 9.2 mph - N/A   Mostly Cloudy
8:55 AM 11.7 °F 0.0 °F 8.4 °F 87% 30.27 in 10.0 mi WNW 8.1 mph - N/A   Mostly Cloudy
9:35 AM 13.5 °F -0.2 °F 9.7 °F 85% 30.27 in 10.0 mi WNW 11.5 mph - N/A   Clear
9:55 AM 15.8 °F 3.4 °F 11.8 °F 84% 30.28 in 10.0 mi WNW 10.4 mph - N/A   Clear
10:15 AM 17.2 °F 5.2 °F 12.7 °F 83% 30.29 in 10.0 mi West 10.4 mph - N/A   Clear
10:35 AM 17.2 °F 1.7 °F 13.1 °F 84% 30.30 in 10.0 mi West 17.3 mph - N/A   Clear
10:55 AM 18.1 °F 5.0 °F 13.8 °F 83% 30.30 in 10.0 mi West 12.7 mph - N/A   Clear
11:15 AM 19.2 °F 10.2 °F 14.4 °F 81% 30.30 in 10.0 mi West 6.9 mph - N/A   Clear
11:35 AM 20.3 °F 11.5 °F 15.3 °F 81% 30.30 in 10.0 mi West 6.9 mph - N/A   Clear
11:55 AM 21.4 °F 13.8 °F 15.6 °F 78% 30.29 in 10.0 mi WNW 5.8 mph - N/A   Clear
12:15 PM 21.7 °F 17.0 °F 15.6 °F 77% 30.28 in 10.0 mi WNW 3.5 mph - N/A   Clear
12:35 PM 23.0 °F 14.7 °F 16.2 °F 75% 30.28 in 10.0 mi WNW 6.9 mph - N/A   Clear
12:55 PM 23.5 °F 15.4 °F 17.4 °F 77% 30.27 in 10.0 mi West 6.9 mph - N/A   Clear
1:15 PM 23.5 °F 16.4 °F 17.1 °F 76% 30.27 in 10.0 mi West 5.8 mph - N/A   Clear
1:35 PM 23.9 °F 15.0 °F 17.4 °F 76% 30.27 in 10.0 mi West 8.1 mph - N/A   Clear
1:55 PM 24.6 °F 15.8 °F 18.0 °F 76% 30.27 in 10.0 mi West 8.1 mph - N/A   Clear
2:15 PM 25.3 °F 18.5 °F 18.5 °F 75% 30.26 in 10.0 mi West 5.8 mph - N/A   Clear
2:55 PM 26.4 °F - 19.6 °F 75% 30.26 in 10.0 mi Calm Calm - N/A   Clear
3:15 PM 26.1 °F 20.5 °F 19.2 °F 75% 30.26 in 10.0 mi SW 4.6 mph - N/A   Clear
3:35 PM 25.9 °F - 19.8 °F 78% 30.26 in 10.0 mi Calm Calm - N/A   Clear
3:55 PM 25.7 °F 21.5 °F 20.3 °F 80% 30.26 in 10.0 mi South 3.5 mph - N/A   Clear
4:15 PM 25.2 °F 19.5 °F 19.4 °F 79% 30.26 in 10.0 mi SSW 4.6 mph - N/A   Clear
4:55 PM 21.9 °F 14.5 °F 18.0 °F 85% 30.26 in 10.0 mi SE 5.8 mph - N/A   Clear
5:15 PM 20.3 °F 10.6 °F 16.7 °F 86% 30.25 in 10.0 mi SSE 8.1 mph - N/A   Clear
5:35 PM 18.5 °F 11.7 °F 15.1 °F 86% 30.25 in 10.0 mi SSE 4.6 mph - N/A   Clear
5:55 PM 18.5 °F 11.7 °F 16.2 °F 91% 30.25 in 10.0 mi SSE 4.6 mph - N/A   Clear
6:15 PM 16.7 °F 8.3 °F 14.2 °F 90% 30.24 in 10.0 mi SSE 5.8 mph - N/A   Clear
6:35 PM 16.5 °F 9.4 °F 13.8 °F 89% 30.24 in 10.0 mi SSE 4.6 mph - N/A   Clear
6:55 PM 15.1 °F 5.2 °F 12.7 °F 90% 30.23 in 10.0 mi South 6.9 mph - N/A   Clear
7:15 PM 15.8 °F 5.1 °F 13.3 °F 90% 30.22 in 10.0 mi SSE 8.1 mph - N/A   Clear
7:35 PM 14.9 °F 3.1 °F 12.6 °F 90% 30.22 in 10.0 mi SSE 9.2 mph - N/A   Clear
8:15 PM 14.0 °F 3.9 °F 11.5 °F 90% 30.21 in 10.0 mi SSE 6.9 mph - N/A   Clear
8:35 PM 14.7 °F 3.8 °F 12.6 °F 91% 30.20 in 10.0 mi SSE 8.1 mph - N/A   Clear
8:55 PM 15.1 °F 3.3 °F 13.1 °F 92% 30.19 in 10.0 mi SSE 9.2 mph - N/A   Clear
9:55 PM 19.0 °F 7.5 °F 15.4 °F 86% 30.18 in 10.0 mi South 10.4 mph - N/A   Clear
10:15 PM 19.2 °F 7.0 °F 15.6 °F 86% 30.17 in 10.0 mi South 11.5 mph - N/A   Clear
10:35 PM 19.4 °F 7.9 °F 16.0 °F 87% 30.17 in 10.0 mi SSE 10.4 mph - N/A   Clear
10:55 PM 18.7 °F 7.0 °F 15.4 °F 87% 30.17 in 10.0 mi South 10.4 mph - N/A   Clear
11:35 PM 16.5 °F 4.3 °F 13.8 °F 89% 30.16 in 10.0 mi South 10.4 mph - N/A   Clear
11:55 PM 19.0 °F 6.1 °F 16.0 °F 88% 30.16 in 10.0 mi South 12.7 mph - N/A   Clear